Weather in Kurilovo

Russia / Vladimir Oblast     56°05′32″N   39°58′34″E
temp.,
°C
wind,
m/s
gust,
m/s
humid.,
%
clouds,
%
prec.,
mm/h
press.,
hPa
HPBL,
m
28 february, sun
sun2800:00−11nnw249591 0.0 101398
03:00−13nnw239670 0.1 101444
06:00−11nnw239689 0.2 101478
09:00−10nnw249390 0.3 1015216
12:00−6nnw248886 0.0 1015391
15:00−4nnw358991 0.1 1015450
18:00−5n249497 0.0 1017137
21:00−8nne229596 0.1 101936
1 march, mon
mon100:00−10nne119581 0.0 102121
03:00−8w129686 0.1 102231
06:00−6sw249699 0.1 1023102
09:00−4wsw369399 0.1 1023227
12:00−1wsw478894 0.0 1022637
15:000wsw598896 0.1 1020672
18:00−1wsw51194100 0.0 1017691
21:00+1w61297100 0.1 1015656
2 march, tue
tue200:00+1w51292100 0.0 1012665
03:00+1w51393100 0.1 1010681
06:00+1wnw51298100 0.1 1008684
09:00+1nw5119198 0.3 1008837
12:00+1wnw599082 0.1 1007998
15:00+1wnw598390 0.3 1007934
18:00−1nw41086100 0.1 1007549
21:00−1nw41089100 0.1 1008580
3 march, wed
wed300:00−2wnw3993100 0.1 1009499
03:00−2nw4109699 0.3 1009504
06:00−3nw5119692 0.3 1010645
09:00−5nnw6138790 0.3 1013708
12:00−4nw6985100 0.0 1014747
15:00−2nw497871 0.0 1014828
18:00−4w388926 0.0 1013202
21:00−2w4119261 0.1 1013703
4 march, thu
thu400:00−2w51193100 0.1 1010651
03:00−2wsw51290100 0.2 1007762
06:00−1wsw71493100 0.1 1003602
09:000wsw81589100 0.4 9991195
12:000wsw81588100 0.2 9971132
15:00+1w81588100 0.3 9971327
18:00−3w5147256 0.5 998776
21:00−5wnw4128845 0.5 1001817